Regional Weather Roundup
Issued by NWS

Home | Current Version | Previous Version | Text Only | Print | Product List | Glossary On
Versions: 1 2 3 4 5 6 7 8 9 10 11 12 13 14 15 16 17 18 19 20 21 22 23 24 25 26 27 28 29 30 31 32 33 34 35 36 37 38 39 40 41 42 43 44 45 46 47 48 49 50
000
ASUS43 KDTX 251601
RWRMI
MICHIGAN HOURLY REGIONAL WEATHER ROUNDUP
NATIONAL WEATHER SERVICE DETROIT/PONTIAC MI
1200 PM EDT SUN SEP 25 2016

NOTE: "FAIR" INDICATES FEW OR NO CLOUDS BELOW 12,000 FEET WITH NO
SIGNIFICANT WEATHER AND/OR OBSTRUCTION TO VISIBILITY.

MIZ047>049-052>055-059>063-066>070-074>076-081>083-251700-
SOUTHEAST LOWER MICHIGAN

CITY           SKY/WX    TMP DP  RH WIND       PRES   REMARKS
ADRIAN         SUNNY     69  43  38 SE9       30.19F
ALMA           SUNNY     67  57  70 S6        30.17F
ANN ARBOR      SUNNY     67  55  65 E10       30.18F
BAD AXE        SUNNY     65  51  60 S9        30.21F
CARO           SUNNY     67  54  63 S7        30.19F
DETROIT CITY   SUNNY     68  50  52 SE8       30.20F
DETROIT        MOSUNNY   68  51  54 SE9       30.20F
FLINT          SUNNY     67  54  63 SE10      30.20S
GROSSE ILE     SUNNY     69  50  51 SE5       30.19S
HILLSDALE      PTSUNNY   68  36  30 S7        30.18S
HOWELL         SUNNY     67  55  66 S8        30.20R

CITY           SKY/WX    TMP DP  RH WIND       PRES   REMARKS
JACKSON        SUNNY     67  51  56 SE9       30.19R
LAMBERTVILLE   SUNNY     69  42  37 E6        30.19S
LANSING        MOSUNNY   67  52  58 SE10      30.18F
LAPEER         FAIR      67  52  58 SE12G17   30.20F
MASON          SUNNY     67  53  60 SE8       30.19S
MONROE         SUNNY     68  52  56 SE10G17   30.19S
MT. CLEMENS    MOSUNNY   67  54  61 SE14      30.19F
PONTIAC        MOSUNNY   66  51  58 VRB5      30.19F
PORT HOPE        N/A     66  50  56 SE9       30.19F
PORT HURON     MOSUNNY   64  54  68 SE8       30.21F
TRI CITIES     SUNNY     67  55  65 S10       30.19F
MIDLAND        FAIR      66  53  63 S5        30.18F
TROY           SUNNY     69  47  44 SE5       30.22S
SAGINAW HB     SUNNY     68  54  60 SE8       30.18F
$$
MIZ043>046-050>051-056>058-064>065-071>073-077>080-251700-
SOUTHWEST LOWER MICHIGAN

CITY           SKY/WX    TMP DP  RH WIND       PRES   REMARKS
BATTLE CREEK   PTSUNNY   67  51  56 SE8       30.16F
BENTON HARBOR  MOSUNNY   71  54  54 SE12      30.11S
BIG RAPIDS     CLOUDY    66  54  65 SE10      30.15F
COLDWATER      PTSUNNY   67  38  33 SE9       30.16F
FREMONT        FAIR      65  53  63 SE9       30.12F
HOLLAND        PTSUNNY   67  56  67 SE10      30.13F
GRAND RAPIDS   PTSUNNY   67  54  63 SE9       30.15F
IONIA          PTSUNNY   67  52  59 SE9       30.15F
KALAMAZOO      SUNNY     68  51  54 SE7       30.15F
LUDINGTON      MOSUNNY   67  56  68 S12       30.09F
MARSHALL       CLOUDY    68  47  47 SE10      30.16F
MUSKEGON       CLOUDY    68  55  63 SE14      30.11F
SOUTH HAVEN    CLOUDY    69  57  64 SE8       30.12S
$$
MIZ016>042-251700-
NORTHERN LOWER MICHIGAN

CITY           SKY/WX    TMP DP  RH WIND       PRES   REMARKS
ALPENA         MOSUNNY   66  47  50 S9        30.20S
BEAVER ISLAND  CLOUDY    62  53  71 SE7       30.12F
BELLAIRE       PTSUNNY   67  49  53 SE9G17    30.13F
CADILLAC       PTSUNNY   65  52  64 SE10      30.14F
CHARLEVOIX     CLOUDY    64  51  61 SE9       30.15F
FRANKFORT      MOSUNNY   68  53  59 SE12G18   30.08F
GAYLORD        CLOUDY    63  47  55 SE13      30.17F
GRAYLING       PTSUNNY   66  49  53 S8        30.17F
HARBOR SPRINGS CLOUDY    64  51  62 SE6       30.14F
HOUGHTON LAKE  PTSUNNY   65  48  54 S10       30.18F
MANISTEE       MOSUNNY   67  54  63 SE10      30.08F
OSCODA         MOSUNNY   65  48  53 S13G18    30.20S
PELLSTON       CLOUDY    64  50  60 SE9       30.15F
ROGERS CITY    MOSUNNY   65  50  58 S9        30.19F
TRAVERSE CITY  PTSUNNY   68  51  54 VRB6      30.10F
$$
MIZ007>008-015-251700-
EASTERN UPPER MICHIGAN

CITY           SKY/WX    TMP DP  RH WIND       PRES   REMARKS
KINROSS        PTSUNNY   63  49  60 SE16      30.15F
MACKINAC ISLAN MOSUNNY   62  50  65 SE9       30.15F
NEWBERRY       CLOUDY    62  54  74 SE14      30.11F
S. S. MARIE    PTSUNNY   64  49  57 SE13G21   30.15F
MUNISING         N/A     67  56  67 S9G22     30.02F
$$
MIZ004>006-011>014-085-251700-
CENTRAL UPPER MICHIGAN

CITY           SKY/WX    TMP DP  RH WIND       PRES   REMARKS
MANISTIQUE     CLOUDY    65  56  73 SE10G20   30.08F
ESCANABA       CLOUDY    65  59  81 SE12      30.05F
MENOMINEE      CLOUDY    66  62  87 S13       30.02F
SAWYER-GWINN   CLOUDY    63  55  77 S18G26    30.03F
$$
MIZ001>003-009>011-084-251700-
WESTERN UPPER MICHIGAN

CITY           SKY/WX    TMP DP  RH WIND       PRES   REMARKS
IRON MOUNTAIN  CLOUDY    63  57  81 SE13      30.00F
HOUGHTON       LGT RAIN  63  58  83 SE8       29.94S
COPPER HARBOR    N/A     65  58  78 SW12G25   29.92F
IRONWOOD       LGT RAIN  64  61  90 S10G18    29.88F
$$

ABBREVIATIONS USED IN REMARKS
   TC - TEMPERATURE IN CELSIUS
  WCI - WIND CHILL INDEX
   HX - HEAT INDEX
  VSB - VISIBILITY





USA.gov is the U.S. government's official web portal to all federal, state and local government web resources and services.